Regional Weather Roundup
Issued by NWS Goodland, KS

Home | Current Version | Previous Version | Text Only | Print | Product List | Glossary Off
Versions: 1 2 3 4 5 6 7 8 9 10 11 12 13 14 15 16 17 18 19 20 21 22 23 24 25 26 27 28 29 30 31 32 33 34 35 36 37 38 39 40 41 42 43 44 45 46 47 48 49 50

000
ASUS43 KGLD 291559
RWRGLD

GOODLAND FORECAST AREA HOURLY WEATHER ROUNDUP
NATIONAL WEATHER SERVICE GOODLAND KS
1000 AM MDT SUN MAY 29 2016

...OFFICIAL OBSERVATIONS...

CITY           SKY/WX    TMP DP  RH WIND       PRES   REMARKS
GOODLAND KS    SUNNY     74  52  46 S12       30.13F
HILL CITY KS   SUNNY     79  58  48 S9        30.11F
IMPERIAL NEB   SUNNY     68  55  63 SE3       30.13F
MCCOOK NEB     SUNNY     71  56  58 E3        30.11F
AKRON CO       SUNNY     68  48  48 SW6       30.16F
BURLINGTON CO  SUNNY     75  48  38 S22       30.15F
LIMON CO       CLOUDY    64  50  60 S7        30.19F
$$

...UNOFFICIAL OBSERVATIONS...

CITY           SKY/WX    TMP DP  RH WIND       PRES   REMARKS
GOVE KS          N/A     77  32  19 MISG        N/A
LENORA KS        N/A     75  32  20 MISG        N/A
SHARON SPRINGS   N/A     72  58  60 S12G20      N/A
KIT CARSON CO    N/A     67  53  61 CALM        N/A
YUMA CO          N/A     71  51  49 W5G12       N/A
$$




USA.gov is the U.S. government's official web portal to all federal, state and local government web resources and services.